Location: Bretagne
(43.8474°N, 0.4650°W)
Time: 04:04:12
(UTC+00:00)

Cosmos 1302 Rocket - Visible Passes

Search period start: 21 April 2026 00:00
Search period end: 01 May 2026 00:00
Orbit: 753 x 771 km, 74.0° (Epoch: 20 April)

Date Brightness Start Highest point End Pass type
(mag) Time Alt. Az. Time Alt. Az. Time Alt. Az.
21 Apr 5.3 00:39:24 35° NE 00:39:24 35° NE 00:42:25 10° NNE visible
21 Apr 5.8 02:19:31 18° WNW 02:19:44 18° NW 02:23:13 10° N visible
22 Apr 5.9 00:00:58 23° NE 00:00:58 23° NE 00:03:12 10° NE visible
22 Apr 5.4 01:41:05 28° NW 01:41:05 28° NW 01:44:54 10° N visible
22 Apr 6.3 23:22:30 15° ENE 23:22:30 15° ENE 23:23:36 10° NE visible
23 Apr 5.1 01:02:36 38° NNW 01:02:36 38° NNW 01:06:16 10° N visible
24 Apr 5.1 00:24:07 40° NNE 00:24:07 40° NNE 00:27:25 10° NNE visible
24 Apr 6.2 02:04:14 13° WNW 02:05:00 13° NW 02:07:22 10° NNW visible
24 Apr 5.5 23:45:36 31° NE 23:45:36 31° NE 23:48:21 10° NNE visible
25 Apr 5.8 01:25:43 21° NW 01:25:43 21° NW 01:29:28 10° N visible
25 Apr 5.9 23:07:04 21° NE 23:07:04 21° NE 23:09:02 10° NE visible
26 Apr 5.4 00:47:10 32° NW 00:47:10 32° NW 00:51:02 10° N visible
26 Apr 6.3 22:28:29 13° ENE 22:28:29 13° ENE 22:29:15 10° NE visible
27 Apr 5.0 00:08:35 43° NNW 00:08:35 43° NNW 00:12:18 10° NNE visible
27 Apr 5.0 23:29:59 42° NNE 23:29:59 42° NNE 23:33:23 10° NNE visible
28 Apr 6.2 01:10:05 15° WNW 01:10:49 15° NW 01:13:49 10° NNW visible
28 Apr 5.3 22:51:20 31° NE 22:51:20 31° NE 22:54:15 10° NNE visible
29 Apr 5.7 00:31:26 24° WNW 00:31:28 24° WNW 00:35:40 10° N visible
29 Apr 5.7 22:12:40 20° ENE 22:12:40 20° ENE 22:14:49 10° NE visible
29 Apr 5.1 23:52:45 38° NW 23:52:45 38° NW 23:57:07 10° N visible
30 Apr 6.1 21:33:56 12° ENE 21:33:56 12° ENE 21:34:45 10° ENE visible
30 Apr 4.5 23:14:02 57° NNW 23:14:02 57° NNW 23:18:19 10° NNE visible
